Location: Castillon
(43.0896°N, 0.2156°E)
Time: 17:13:58
(UTC+00:00)

GEOS 3 Rocket - Pass Details

Date: 16 June 2021
Orbit: 780 x 839 km, 115.0° (Epoch: 03 August)

Event Time Altitude Azimuth Distance (km) Brightness Sun altitude
Exits shadow 22:36:03 35° 123° (ESE) 1,331 4.3 -20.8°
Maximum altitude 22:38:21 70° 50° (NE) 892 3.8 -20.9°
Drops below altitude 10° 22:43:39 10° 328° (NNW) 2,452 7.2 -21.2°
Sets 22:45:59 0° 326° (NW) 3,384 8.2 -21.4°
